CW6099 Weather Reports


Display with metric or nautical units.
time (UTC)temp
F
wind
direction
speed
MPH
gust
MPH
rain 1hr
in
rain 24hr
in
rain mn
in
humidity
%
barometer
mb
20260509040412 56 157 3.0 4.0 0.00 0.00 0.00 56 1012.9
20260509040325 56 147 3.0 4.0 0.00 0.00 0.00 56 1012.8
20260509035435 55 187 2.0 3.0 0.00 0.00 0.00 58 1012.8
20260509035348 55 187 2.0 3.0 0.00 0.00 0.00 58 1012.9
20260509034418 54 187 2.0 4.0 0.00 0.00 0.00 60 1012.8
20260509034329 54 187 2.0 4.0 0.00 0.00 0.00 60 1012.8
20260509033420 55 146 1.0 3.0 0.00 0.00 0.00 62 1012.8
20260509033315 55 125 0.0 0.0 0.00 0.00 0.00 60 1012.7
20260509032427 55 125 0.0 0.0 0.00 0.00 0.00 63 1012.6
20260509032318 55 125 0.0 0.0 0.00 0.00 0.00 64 1012.7
20260509031410 55 125 0.0 0.0 0.00 0.00 0.00 57 1012.6
20260509031323 56 125 0.0 0.0 0.00 0.00 0.00 57 1012.5
20260509030413 55 125 0.0 0.0 0.00 0.00 0.00 59 1012.4
20260509030323 55 125 0.0 0.0 0.00 0.00 0.00 59 1012.4
20260509025435 56 125 0.0 0.0 0.00 0.00 0.00 65 1012.3
20260509025346 56 125 0.0 0.0 0.00 0.00 0.00 65 1012.4
20260509024418 56 56 0.0 0.0 0.00 0.00 0.00 59 1012.2
20260509024315 56 56 0.0 0.0 0.00 0.00 0.00 59 1012.2
20260509023447 57 17 0.0 0.0 0.00 0.00 0.00 59 1012.2
20260509023320 57 17 0.0 0.0 0.00 0.00 0.00 61 1012.2
20260509022410 58 17 0.0 0.0 0.00 0.00 0.00 65 1012.0
20260509022343 58 17 0.0 0.0 0.00 0.00 0.00 61 1012.0
20260509021413 60 17 0.0 1.0 0.00 0.00 0.00 62 1012.1
20260509021325 60 17 0.0 0.0 0.00 0.00 0.00 62 1012.1
20260509020418 62 17 0.0 2.0 0.00 0.00 0.00 58 1012.0
20260509020314 62 17 0.0 2.0 0.00 0.00 0.00 58 1011.9
20260509015427 63 16 2.0 2.0 0.00 0.00 0.00 48 1012.0
20260509015319 63 16 1.0 2.0 0.00 0.00 0.00 47 1011.9
20260509014410 64 355 1.0 3.0 0.00 0.00 0.00 46 1012.0
20260509014323 65 355 2.0 3.0 0.00 0.00 0.00 49 1012.0
20260509013433 66 338 1.0 3.0 0.00 0.00 0.00 48 1011.9
20260509013326 66 338 1.0 3.0 0.00 0.00 0.00 48 1011.9
20260509012418 67 350 0.0 0.0 0.00 0.00 0.00 47 1011.8
20260509012311 67 350 0.0 2.0 0.00 0.00 0.00 48 1011.8
20260509011422 68 344 1.0 4.0 0.00 0.00 0.00 43 1011.8
20260509011340 68 340 2.0 5.0 0.00 0.00 0.00 43 1011.8
20260509010430 69 331 5.0 6.0 0.00 0.00 0.00 43 1011.8
20260509010320 69 324 4.0 6.0 0.00 0.00 0.00 42 1011.8
20260509005431 70 319 2.0 6.0 0.00 0.00 0.00 39 1011.6
20260509005323 70 339 3.0 6.0 0.00 0.00 0.00 39 1011.6
20260509004411 71 336 3.0 6.0 0.00 0.00 0.00 36 1011.7
20260509004323 71 337 3.0 6.0 0.00 0.00 0.00 37 1011.6
20260509003434 72 360 2.0 5.0 0.00 0.00 0.00 37 1011.7
20260509003327 72 351 2.0 5.0 0.00 0.00 0.00 36 1011.7
20260509002436 72 46 4.0 9.0 0.00 0.00 0.00 36 1011.5
20260509002326 72 360 5.0 9.0 0.00 0.00 0.00 36 1011.5
20260509001437 72 338 5.0 10.0 0.00 0.00 0.00 36 1011.6
20260509001313 72 5 5.0 12.0 0.00 0.00 0.00 37 1011.6
20260509000425 72 360 9.0 15.0 0.00 0.00 0.00 36 1011.4
20260509000318 72 355 11.0 15.0 0.00 0.00 0.00 35 1011.4
20260508235451 73 38 10.0 15.0 0.00 0.00 0.00 36 1011.2
20260508235321 73 53 9.0 16.0 0.00 0.00 0.00 36 1011.2
20260508234432 73 34 9.0 18.0 0.00 0.00 0.00 35 1011.3
20260508234323 73 23 9.0 18.0 0.00 0.00 0.00 35 1011.3
20260508233412 73 48 9.0 17.0 0.00 0.00 0.00 37 1011.3
20260508233345 73 55 9.0 18.0 0.00 0.00 0.00 37 1011.3
20260508232416 74 36 8.0 15.0 0.00 0.00 0.00 36 1011.2
20260508232311 74 55 7.0 15.0 0.00 0.00 0.00 36 1011.2
20260508231442 74 344 12.0 16.0 0.00 0.00 0.00 37 1011.4
20260508231314 74 323 10.0 16.0 0.00 0.00 0.00 36 1011.4
20260508230427 74 9 7.0 15.0 0.00 0.00 0.00 36 1011.4
20260508230318 74 5 6.0 15.0 0.00 0.00 0.00 36 1011.4
20260508225429 74 355 11.0 16.0 0.00 0.00 0.00 36 1011.5
20260508225341 74 15 11.0 16.0 0.00 0.00 0.00 37 1011.4
20260508224412 73 340 8.0 14.0 0.00 0.00 0.00 37 1011.6
20260508224345 73 321 8.0 14.0 0.00 0.00 0.00 39 1011.6
20260508223416 74 26 7.0 16.0 0.00 0.00 0.00 38 1011.7
20260508223332 74 43 7.0 16.0 0.00 0.00 0.00 38 1011.6
20260508222421 74 322 11.0 17.0 0.00 0.00 0.00 38 1011.6
20260508222314 74 331 12.0 18.0 0.00 0.00 0.00 39 1011.6
20260508221424 73 321 7.0 16.0 0.00 0.00 0.00 38 1011.8
20260508221317 73 310 4.0 16.0 0.00 0.00 0.00 36 1011.8
20260508220429 73 327 7.0 15.0 0.00 0.00 0.00 37 1011.9
20260508220319 73 329 8.0 15.0 0.00 0.00 0.00 37 1011.9
20260508215411 73 9 13.0 18.0 0.00 0.00 0.00 40 1012.0
20260508215328 73 350 12.0 18.0 0.00 0.00 0.00 40 1012.0
20260508214420 73 355 7.0 20.0 0.00 0.00 0.00 43 1012.1
20260508214313 72 5 6.0 20.0 0.00 0.00 0.00 44 1012.1
20260508213425 71 309 10.0 15.0 0.00 0.00 0.00 40 1012.3
20260508213317 71 349 8.0 15.0 0.00 0.00 0.00 41 1012.2
20260508212429 72 17 8.0 18.0 0.00 0.00 0.00 41 1012.4
20260508212320 72 61 7.0 18.0 0.00 0.00 0.00 41 1012.4
20260508211412 72 355 11.0 21.0 0.00 0.00 0.00 40 1012.4
20260508211345 72 355 12.0 21.0 0.00 0.00 0.00 40 1012.4
20260508210436 73 24 9.0 17.0 0.00 0.00 0.00 39 1012.3
20260508210331 73 49 10.0 17.0 0.00 0.00 0.00 40 1012.3
20260508205420 72 321 15.0 24.0 0.00 0.00 0.00 40 1012.5
20260508205313 72 327 13.0 24.0 0.00 0.00 0.00 39 1012.5
20260508204423 74 311 13.0 20.0 0.00 0.00 0.00 39 1012.6
20260508204315 74 327 14.0 20.0 0.00 0.00 0.00 38 1012.6
20260508203427 73 24 12.0 20.0 0.00 0.00 0.00 42 1012.6
20260508203320 73 333 10.0 20.0 0.00 0.00 0.00 42 1012.6
20260508202430 71 331 15.0 21.0 0.00 0.00 0.00 40 1012.7
20260508202327 71 331 15.0 19.0 0.00 0.00 0.00 39 1012.7
20260508201418 72 315 14.0 21.0 0.00 0.00 0.00 39 1012.8
20260508201352 72 332 15.0 21.0 0.00 0.00 0.00 39 1012.8
20260508200420 73 318 14.0 20.0 0.00 0.00 0.00 41 1012.8
20260508200313 72 323 11.0 19.0 0.00 0.00 0.00 41 1012.7
20260508195424 72 336 14.0 24.0 0.00 0.00 0.00 41 1012.8
20260508195317 72 25 14.0 26.0 0.00 0.00 0.00 41 1012.8
20260508194428 73 335 18.0 26.0 0.00 0.00 0.00 39 1012.9
20260508194317 73 328 15.0 20.0 0.00 0.00 0.00 41 1012.9
20260508193450 73 360 14.0 22.0 0.00 0.00 0.00 41 1012.9
20260508193326 73 336 13.0 22.0 0.00 0.00 0.00 41 1012.9
20260508192415 73 309 15.0 20.0 0.00 0.00 0.00 41 1012.9
20260508192327 73 304 15.0 20.0 0.00 0.00 0.00 41 1012.9
20260508191416 72 342 17.0 25.0 0.00 0.00 0.00 43 1012.9
20260508191326 72 328 13.0 24.0 0.00 0.00 0.00 43 1012.9
20260508190416 72 335 15.0 22.0 0.00 0.00 0.00 41 1012.8
20260508190327 72 308 15.0 22.0 0.00 0.00 0.00 42 1012.9
20260508185419 71 31 10.0 21.0 0.00 0.00 0.00 42 1012.9
20260508185315 71 36 8.0 21.0 0.00 0.00 0.00 41 1012.9
20260508184445 71 323 9.0 21.0 0.00 0.00 0.00 41 1013.0
20260508184317 71 330 11.0 23.0 0.00 0.00 0.00 41 1013.0
20260508183431 71 9 16.0 23.0 0.00 0.00 0.00 42 1013.1
20260508183324 71 324 16.0 20.0 0.00 0.00 0.00 43 1013.1
20260508182436 71 13 11.0 23.0 0.00 0.00 0.00 44 1013.1
20260508182325 71 49 11.0 23.0 0.00 0.00 0.00 43 1013.1
20260508181435 71 5 11.0 20.0 0.00 0.00 0.00 44 1013.2
20260508181326 71 342 11.0 20.0 0.00 0.00 0.00 43 1013.1
20260508180412 70 17 14.0 22.0 0.00 0.00 0.00 44 1013.4
20260508180329 70 37 15.0 22.0 0.00 0.00 0.00 44 1013.4
20260508175420 70 325 14.0 24.0 0.00 0.00 0.00 44 1013.5
20260508175313 69 355 17.0 24.0 0.00 0.00 0.00 44 1013.5
20260508174422 69 44 13.0 26.0 0.00 0.00 0.00 44 1013.4
20260508174316 69 9 13.0 26.0 0.00 0.00 0.00 44 1013.4
20260508173427 68 19 11.0 22.0 0.00 0.00 0.00 46 1013.5
20260508173321 68 355 11.0 24.0 0.00 0.00 0.00 46 1013.6
20260508172412 67 355 13.0 20.0 0.00 0.00 0.00 45 1013.7
20260508172345 67 340 11.0 20.0 0.00 0.00 0.00 47 1013.7
20260508171414 68 340 17.0 27.0 0.00 0.00 0.00 45 1013.8
20260508171312 68 331 17.0 27.0 0.00 0.00 0.00 45 1013.8
20260508170423 67 5 12.0 25.0 0.00 0.00 0.00 48 1013.8
20260508170316 67 14 11.0 25.0 0.00 0.00 0.00 48 1013.7
20260508165445 66 355 15.0 26.0 0.00 0.00 0.00 50 1013.6
20260508165317 66 344 16.0 26.0 0.00 0.00 0.00 49 1013.5
20260508164428 67 5 19.0 27.0 0.00 0.00 0.00 46 1013.4
20260508164321 67 360 20.0 27.0 0.00 0.00 0.00 47 1013.4
20260508163413 67 340 19.0 27.0 0.00 0.00 0.00 47 1013.4
20260508163326 67 338 19.0 27.0 0.00 0.00 0.00 48 1013.3
20260508162438 67 355 16.0 28.0 0.00 0.00 0.00 53 1013.4
20260508162313 66 28 16.0 29.0 0.00 0.00 0.00 52 1013.4
20260508161423 66 355 18.0 28.0 0.00 0.00 0.00 52 1013.3
20260508161316 66 11 20.0 27.0 0.00 0.00 0.00 53 1013.3
20260508160447 66 5 19.0 28.0 0.00 0.00 0.00 53 1013.3
20260508160318 66 333 18.0 28.0 0.00 0.00 0.00 55 1013.3
20260508155430 65 15 20.0 29.0 0.00 0.00 0.00 55 1013.3
20260508155322 65 350 20.0 29.0 0.00 0.00 0.00 56 1013.4
20260508154413 65 360 17.0 26.0 0.00 0.00 0.00 56 1013.4
20260508154324 65 346 18.0 26.0 0.00 0.00 0.00 56 1013.4
20260508153415 64 324 16.0 25.0 0.00 0.00 0.00 57 1013.4
20260508153313 64 319 15.0 25.0 0.00 0.00 0.00 57 1013.4
20260508152424 63 355 19.0 26.0 0.00 0.00 0.00 57 1013.5
20260508152315 63 343 18.0 26.0 0.00 0.00 0.00 57 1013.4
20260508151427 63 336 17.0 25.0 0.00 0.00 0.00 60 1013.4
20260508151319 63 335 16.0 25.0 0.00 0.00 0.00 62 1013.4
20260508150430 62 328 16.0 25.0 0.00 0.00 0.00 62 1013.4
20260508150322 61 315 16.0 25.0 0.00 0.00 0.00 63 1013.4
20260508145413 61 351 18.0 25.0 0.00 0.01 0.00 60 1013.4
20260508145328 62 345 20.0 25.0 0.00 0.01 0.00 60 1013.4
20260508144419 61 11 19.0 24.0 0.00 0.01 0.00 62 1013.3
20260508144312 61 9 19.0 24.0 0.00 0.01 0.00 63 1013.3
20260508143421 60 346 16.0 21.0 0.00 0.01 0.00 67 1013.3
20260508143315 60 360 14.0 21.0 0.00 0.01 0.00 69 1013.3
20260508142444 58 348 15.0 21.0 0.00 0.01 0.00 68 1013.2
20260508142315 58 5 14.0 21.0 0.00 0.01 0.00 68 1013.1
20260508141448 59 319 16.0 24.0 0.00 0.01 0.00 68 1013.2
20260508141339 59 325 15.0 24.0 0.00 0.01 0.00 67 1013.2
20260508140409 59 27 16.0 24.0 0.00 0.01 0.00 68 1013.3
20260508140326 59 360 16.0 24.0 0.00 0.01 0.00 68 1013.3
20260508135418 59 339 14.0 24.0 0.00 0.01 0.00 70 1013.2
20260508135311 58 339 14.0 24.0 0.00 0.01 0.00 69 1013.2
20260508134424 58 335 15.0 22.0 0.00 0.01 0.00 70 1013.0
20260508134336 58 331 17.0 22.0 0.00 0.01 0.00 71 1013.1
20260508133427 57 340 14.0 21.0 0.00 0.01 0.00 73 1013.0
20260508133320 57 26 14.0 21.0 0.00 0.01 0.00 73 1012.9
20260508132409 56 339 16.0 22.0 0.00 0.01 0.00 75 1012.8
20260508132322 55 329 16.0 22.0 0.00 0.01 0.00 75 1012.8
20260508131419 55 329 13.0 18.0 0.00 0.01 0.00 78 1012.7
20260508131311 54 332 14.0 18.0 0.00 0.01 0.00 78 1012.7
20260508130423 53 340 12.0 17.0 0.00 0.01 0.00 80 1012.5
20260508130333 53 342 12.0 17.0 0.00 0.01 0.00 80 1012.5
20260508125423 53 335 11.0 15.0 0.00 0.01 0.00 82 1012.3
20260508125336 53 315 11.0 15.0 0.00 0.01 0.00 82 1012.3
20260508124427 52 355 11.0 15.0 0.00 0.01 0.00 83 1012.2
20260508124320 52 329 10.0 15.0 0.00 0.01 0.00 83 1012.1
20260508123412 52 344 11.0 15.0 0.00 0.01 0.00 84 1011.9
20260508123312 52 332 10.0 13.0 0.00 0.01 0.00 84 1011.9
20260508122420 52 336 8.0 12.0 0.00 0.01 0.00 84 1011.7
20260508122331 52 333 9.0 12.0 0.00 0.01 0.00 84 1011.7
20260508121442 51 331 9.0 13.0 0.00 0.01 0.00 84 1011.5
20260508121313 51 340 9.0 13.0 0.00 0.01 0.00 85 1011.5
20260508120423 51 329 6.0 10.0 0.00 0.01 0.00 84 1011.3
20260508120316 51 344 5.0 10.0 0.00 0.01 0.00 84 1011.4
20260508115408 51 329 6.0 11.0 0.00 0.01 0.00 82 1011.4
20260508115320 51 12 7.0 11.0 0.00 0.01 0.00 82 1011.3
20260508114412 52 22 9.0 12.0 0.00 0.01 0.00 81 1011.1
20260508114308 52 348 10.0 12.0 0.00 0.01 0.00 81 1011.0
20260508113421 53 319 10.0 14.0 0.00 0.01 0.00 79 1011.0
20260508113334 53 360 10.0 14.0 0.00 0.01 0.00 79 1011.0
20260508112424 54 337 10.0 14.0 0.00 0.01 0.00 77 1010.9
20260508112317 54 24 10.0 14.0 0.00 0.01 0.00 77 1010.8
20260508111428 54 348 9.0 15.0 0.00 0.01 0.00 76 1010.8
20260508111320 55 351 8.0 17.0 0.00 0.01 0.00 76 1010.7
20260508110411 54 34 11.0 18.0 0.00 0.01 0.00 76 1010.8
20260508110309 54 355 12.0 18.0 0.00 0.01 0.00 76 1010.8
20260508105421 54 355 11.0 14.0 0.00 0.01 0.00 77 1010.6
20260508105314 54 355 12.0 14.0 0.00 0.01 0.00 77 1010.7
20260508104443 54 38 7.0 10.0 0.00 0.01 0.00 76 1010.3
20260508104313 55 5 7.0 10.0 0.00 0.01 0.00 76 1010.2
20260508103425 54 360 6.0 9.0 0.00 0.01 0.00 76 1010.1
20260508103319 54 42 5.0 14.0 0.00 0.01 0.00 76 1010.2
20260508102410 54 347 8.0 14.0 0.00 0.01 0.00 78 1010.3
20260508102322 54 342 7.0 11.0 0.00 0.01 0.00 78 1010.4
20260508101416 55 360 6.0 8.0 0.00 0.01 0.00 76 1010.4
20260508101328 55 360 6.0 8.0 0.00 0.01 0.00 76 1010.4
20260508100416 56 5 5.0 9.0 0.00 0.01 0.00 74 1010.4
20260508100328 56 23 5.0 12.0 0.00 0.01 0.00 74 1010.4
20260508095420 56 332 9.0 15.0 0.00 0.01 0.00 73 1010.7
20260508095312 56 333 10.0 15.0 0.00 0.01 0.00 73 1010.7
20260508094421 56 14 7.0 19.0 0.00 0.01 0.00 73 1010.7
20260508094311 56 5 10.0 19.0 0.00 0.01 0.00 73 1010.7
20260508093442 56 24 15.0 21.0 0.00 0.01 0.00 72 1010.8
20260508093318 56 13 15.0 21.0 0.00 0.01 0.00 72 1010.9
20260508092423 56 355 13.0 16.0 0.00 0.01 0.00 72 1011.0
20260508092317 56 360 13.0 16.0 0.00 0.01 0.00 72 1011.0
20260508091409 55 355 11.0 15.0 0.00 0.01 0.00 72 1010.8
20260508091322 56 350 9.0 13.0 0.00 0.01 0.00 72 1010.8
20260508090434 56 355 7.0 17.0 0.00 0.01 0.00 70 1010.8
20260508090326 56 62 7.0 17.0 0.00 0.01 0.00 70 1010.8
20260508085418 57 355 15.0 22.0 0.00 0.01 0.00 68 1010.8
20260508085311 57 39 14.0 22.0 0.00 0.01 0.00 68 1010.7
20260508084421 57 355 17.0 26.0 0.00 0.01 0.00 68 1010.8
20260508084319 57 349 19.0 26.0 0.00 0.01 0.00 68 1010.8
20260508083410 57 348 18.0 23.0 0.00 0.01 0.00 69 1010.8
20260508083323 57 346 17.0 23.0 0.00 0.01 0.00 69 1010.9
20260508082414 56 342 11.0 17.0 0.00 0.01 0.00 70 1011.3
20260508082346 56 309 11.0 17.0 0.00 0.01 0.00 70 1011.3
20260508081417 55 338 12.0 17.0 0.00 0.01 0.00 71 1011.4
20260508081309 55 325 12.0 17.0 0.00 0.01 0.00 71 1011.4
20260508080421 55 335 10.0 14.0 0.00 0.01 0.00 73 1011.3
20260508080318 55 328 11.0 15.0 0.00 0.01 0.00 73 1011.3
20260508075411 54 360 11.0 14.0 0.00 0.01 0.00 74 1011.4
20260508075323 54 329 11.0 14.0 0.00 0.01 0.00 74 1011.4
20260508074415 53 351 10.0 13.0 0.00 0.01 0.00 75 1011.5
20260508074325 53 343 10.0 13.0 0.00 0.01 0.00 75 1011.4
20260508073436 53 355 7.0 11.0 0.00 0.01 0.00 76 1011.3
20260508073310 53 5 6.0 11.0 0.00 0.01 0.00 76 1011.3
20260508072421 53 349 6.0 8.0 0.00 0.01 0.00 75 1011.1
20260508072314 53 9 5.0 8.0 0.00 0.01 0.00 75 1011.1
20260508071410 53 351 5.0 8.0 0.00 0.01 0.00 75 1011.2
20260508071323 53 9 5.0 8.0 0.00 0.01 0.00 75 1011.2
20260508070415 52 355 4.0 6.0 0.00 0.01 0.00 75 1011.2
20260508070328 52 347 4.0 6.0 0.00 0.01 0.00 75 1011.2
20260508065418 53 335 4.0 8.0 0.00 0.01 0.00 75 1011.4
20260508065311 53 355 4.0 8.0 0.00 0.01 0.00 75 1011.3
20260508064422 54 336 7.0 10.0 0.00 0.01 0.00 73 1011.4
20260508064335 53 355 7.0 11.0 0.00 0.01 0.00 73 1011.4
20260508063426 54 350 9.0 13.0 0.00 0.01 0.00 72 1011.5
20260508063323 54 322 8.0 13.0 0.00 0.01 0.00 73 1011.5
20260508062415 54 32 5.0 6.0 0.00 0.01 0.00 71 1011.4
20260508062328 54 37 5.0 6.0 0.00 0.01 0.00 71 1011.4
20260508061419 55 355 5.0 7.0 0.00 0.01 0.00 70 1011.5
20260508061312 55 338 5.0 8.0 0.00 0.01 0.00 70 1011.5
20260508060424 55 340 7.0 11.0 0.00 0.01 0.00 67 1011.7
20260508060315 55 331 7.0 12.0 0.00 0.01 0.00 67 1011.7
20260508055446 56 327 9.0 12.0 0.00 0.01 0.01 64 1011.7
20260508055315 56 350 7.0 12.0 0.00 0.01 0.01 64 1011.7
20260508054411 56 296 1.0 4.0 0.00 0.01 0.01 57 1011.3
20260508054343 56 202 1.0 2.0 0.00 0.01 0.01 55 1011.2
20260508053412 56 202 0.0 0.0 0.00 0.01 0.01 55 1011.1
20260508053327 56 202 0.0 0.0 0.00 0.01 0.01 55 1011.1
20260508052415 55 205 0.0 2.0 0.00 0.01 0.01 62 1011.1
20260508052328 55 205 0.0 2.0 0.00 0.01 0.01 61 1011.0
20260508051419 55 207 1.0 2.0 0.00 0.01 0.01 62 1011.0
20260508051312 55 207 0.0 3.0 0.00 0.01 0.01 62 1011.1
20260508050424 55 219 1.0 5.0 0.00 0.01 0.01 62 1011.1
20260508050320 55 236 2.0 5.0 0.00 0.01 0.01 61 1011.1
20260508045411 56 57 0.0 2.0 0.00 0.01 0.01 55 1011.1
20260508045324 56 57 0.0 2.0 0.00 0.01 0.01 55 1011.1
20260508044417 56 54 1.0 5.0 0.00 0.01 0.01 56 1011.0
20260508044309 56 206 3.0 5.0 0.00 0.01 0.01 56 1011.0
20260508043421 57 134 2.0 4.0 0.00 0.01 0.01 57 1011.0
20260508043349 57 194 3.0 4.0 0.00 0.01 0.01 57 1011.0
20260508042419 58 157 3.0 4.0 0.00 0.01 0.01 56 1011.1
20260508042315 58 161 2.0 5.0 0.00 0.01 0.01 54 1011.1
20260508041444 58 126 2.0 4.0 0.00 0.01 0.01 53 1011.2
20260508041319 58 150 2.0 4.0 0.00 0.01 0.01 54 1011.2